Flag for Tunisia Weather past 2 weeks in Kairouan, Tunisia

Now
59 °F

Passing clouds.


Feels Like: 59 °F
Forecast: 60 / 80 °F
Wind: 2 mph from North

Location: Kairouan Airport

Current Time: Oct 25, 2014 at 6:40:41 AM

Latest Report: Oct 25, 2014 at 6:00 AM


Visibility: N/A

Pressure: 30.04 "Hg

Humidity: 72%

Dew point: 50 °F

Location of KairouanLocation

Historic Weather in Kairouan — Graph

°F

Kairouan temperature yesterday

Maximum temperature yesterday: 79 °F (at 1:00 PM)
Minimum temperature yesterday: 66 °F (at 2:00 AM)
Average temperature yesterday: 71 °F

Past Weeks' High & Low Weather Summary

 TemperatureHumidityPressure
High95 °F (Oct 10, 3:00 PM)94% (Oct 10, 6:00 AM)30.24 "Hg (Oct 10, 6:00 AM)
Low59 °F (Oct 25, 5:00 AM)18% (Oct 14, 5:00 PM)29.74 "Hg (Oct 14, 8:00 PM)
Average76 °F60%30.03 "Hg
* Reported Oct 10 5:00 AM — Oct 25 5:00 AM, Kairouan, Weather by CustomWeather, © 2014

Note: Actual official high and low records may vary slightly from our data, if they occured in-between our weather recording intervals... More about our weather records

Advertising

Kairouan weather history for previous 24 hours

 ConditionsComfort  
Time TempWeatherWind HumidityBarometerVisibility
5:00 AM
Oct 25
59 °FClear.2 mph72%30.04 "Hg10 mi
4:00 AM61 °FClear.No wind72%30.04 "Hg10 mi
3:00 AM61 °FCool.2 mph72%30.04 "HgN/A
2:00 AM63 °FClear.No wind68%30.04 "Hg10 mi
1:00 AM63 °FClear.No wind68%30.04 "Hg10 mi
12:00 AM66 °FClear.No wind60%30.04 "Hg10 mi
11:00 PM
Oct 24
66 °FClear.2 mph60%30.04 "Hg10 mi
10:00 PM68 °FClear.7 mph56%30.04 "Hg10 mi
9:00 PM70 °FPassing clouds.5 mph53%30.01 "HgN/A
8:00 PM70 °FPassing clouds.5 mph53%30.01 "HgN/A
7:00 PM72 °FPassing clouds.7 mph47%29.98 "HgN/A
6:00 PM73 °FPassing clouds.7 mph41%29.95 "HgN/A
5:00 PM77 °FPassing clouds.7 mph36%29.95 "HgN/A
4:00 PM79 °FPassing clouds.7 mph37%29.95 "HgN/A
3:00 PM77 °FScattered clouds.7 mph42%29.95 "HgN/A
2:00 PM77 °FScattered clouds.7 mph39%29.95 "HgN/A
1:00 PM79 °FScattered clouds.7 mph37%29.95 "HgN/A
12:00 PM77 °FScattered clouds.9 mph42%29.95 "HgN/A
11:00 AM75 °FScattered clouds.9 mph47%29.98 "HgN/A
10:00 AM73 °FScattered clouds.7 mph53%29.95 "HgN/A
9:00 AM72 °FPassing clouds.5 mph57%29.95 "HgN/A
8:00 AM68 °FScattered clouds.2 mph64%29.92 "HgN/A
7:00 AM66 °FPartly sunny.5 mph68%29.92 "HgN/A
6:00 AM66 °FPassing clouds.No wind68%29.89 "HgN/A
Weather by CustomWeather, © 2014

See weather overviewHow to use our weather pages